STTW-T2 1 14899U 84035A 21065.17690976 .00000055 00000-0 00000-0 0 9990 2 14899 12.6863 332.7946 0009149 117.1190 151.2304 1.00245236 28027 CZ-3 R/B 1 14900U 84035B 21065.57067760 -.00000041 00000-0 18166-3 0 9997 2 14900 30.8090 296.6929 7173443 9.4503 359.0159 2.33926364246551 CZ-3 DEB 1 29445U 84035D 21064.68382451 .00002796 00000-0 81552-2 0 9991 2 29445 30.1606 238.1687 7031587 108.7188 334.6359 2.50136346141921 CZ-3 DEB 1 29446U 84035E 21065.54354204 .00001713 00000-0 42539-2 0 9993 2 29446 30.4591 242.5351 7049727 84.6686 345.2958 2.48958572 80795